Location: Hopewell Observatory
(38.8698°N, 77.6988°W)
Time: 21:12:21
(UTC-04:00)

Cosmos 2333 Rocket - Pass Details

Date: 26 May 2018
Orbit: 839 x 862 km, 70.8° (Epoch: 18 June)

Event Time Altitude Azimuth Distance (km) Brightness Sun altitude
Rises 21:35:17 0° 354° (N) 3,421 6.1 -12.0°
Reaches altitude 10° 21:39:32 10° 24° (NNE) 2,487 4.9 -12.6°
Maximum altitude 21:41:44 12° 47° (NE) 2,334 4.4 -12.9°
Drops below altitude 10° 21:43:56 10° 70° (ENE) 2,489 4.4 -13.2°
Enters shadow 21:45:41 - 85° (E) 2,798 4.5 -13.5°
